| time (UTC) | temp C | wind direction | speed KPH | gust KPH | rain 1hr cm | rain 24hr cm | rain mn cm | humidity % | barometer mb |
| 20260506044527 | 12 | 201 | 6.4 | 11.3 | 0.00 | 0.00 | 0.00 | 45 | 1013.3 |
| 20260506043014 | 12 | 157 | 4.8 | 6.4 | 0.00 | 0.00 | 0.00 | 45 | 1013.3 |
| 20260506041513 | 12 | 204 | 3.2 | 6.4 | 0.00 | 0.00 | 0.00 | 43 | 1013.1 |
| 20260506040010 | 12 | 215 | 3.2 | 4.8 | 0.00 | 0.00 | 0.00 | 44 | 1013.0 |
| 20260506034508 | 13 | 228 | 3.2 | 4.8 | 0.00 | 0.00 | 0.00 | 42 | 1012.8 |
| 20260506033006 | 14 | 185 | 4.8 | 9.7 | 0.00 | 0.00 | 0.00 | 39 | 1012.7 |
| 20260506031516 | 15 | 187 | 6.4 | 9.7 | 0.00 | 0.00 | 0.00 | 37 | 1012.4 |
| 20260506030010 | 16 | 234 | 8.0 | 12.9 | 0.00 | 0.00 | 0.00 | 35 | 1012.3 |
| 20260506024512 | 17 | 209 | 8.0 | 20.9 | 0.00 | 0.00 | 0.00 | 33 | 1012.0 |
| 20260506023003 | 17 | 277 | 12.9 | 20.9 | 0.00 | 0.00 | 0.00 | 31 | 1011.8 |
| 20260506021503 | 18 | 232 | 16.1 | 25.7 | 0.00 | 0.00 | 0.00 | 31 | 1011.5 |
| 20260506020003 | 18 | 225 | 22.5 | 29.0 | 0.00 | 0.00 | 0.00 | 31 | 1011.2 |
| 20260506014501 | 18 | 246 | 17.7 | 25.7 | 0.00 | 0.00 | 0.00 | 31 | 1011.0 |
| 20260506013001 | 18 | 221 | 24.1 | 32.2 | 0.00 | 0.00 | 0.00 | 30 | 1010.8 |
| 20260506011530 | 18 | 212 | 24.1 | 37.0 | 0.00 | 0.00 | 0.00 | 30 | 1010.7 |
| 20260506004540 | 18 | 219 | 27.4 | 45.1 | 0.00 | 0.00 | 0.00 | 29 | 1010.4 |
| 20260506003122 | 19 | 223 | 29.0 | 40.2 | 0.00 | 0.00 | 0.00 | 29 | 1010.3 |
| 20260506001608 | 20 | 245 | 35.4 | 45.1 | 0.00 | 0.00 | 0.00 | 28 | 1010.3 |
| 20260505234632 | 20 | 235 | 29.0 | 43.5 | 0.00 | 0.00 | 0.00 | 28 | 1010.5 |
| 20260505233120 | 20 | 193 | 33.8 | 51.5 | 0.00 | 0.00 | 0.00 | 27 | 1010.1 |
| 20260505231526 | 20 | 173 | 29.0 | 46.7 | 0.00 | 0.00 | 0.00 | 27 | 1010.2 |
| 20260505224501 | 21 | 194 | 30.6 | 51.5 | 0.00 | 0.00 | 0.00 | 27 | 1010.1 |
| 20260505223057 | 20 | 188 | 35.4 | 48.3 | 0.00 | 0.00 | 0.00 | 28 | 1010.4 |
| 20260505221603 | 21 | 219 | 35.4 | 54.7 | 0.00 | 0.00 | 0.00 | 31 | 1010.6 |
| 20260505220054 | 20 | 232 | 29.0 | 41.8 | 0.00 | 0.00 | 0.00 | 33 | 1011.0 |
| 20260505214542 | 20 | 240 | 32.2 | 45.1 | 0.00 | 0.00 | 0.00 | 33 | 1011.1 |
| 20260505213046 | 19 | 218 | 29.0 | 48.3 | 0.00 | 0.00 | 0.00 | 36 | 1011.3 |
| 20260505211543 | 20 | 209 | 32.2 | 49.9 | 0.00 | 0.00 | 0.00 | 36 | 1011.3 |
| 20260505210038 | 20 | 207 | 30.6 | 59.5 | 0.00 | 0.00 | 0.00 | 36 | 1011.4 |
| 20260505204537 | 19 | 212 | 27.4 | 45.1 | 0.00 | 0.00 | 0.00 | 38 | 1011.8 |
| 20260505203041 | 20 | 209 | 30.6 | 45.1 | 0.00 | 0.00 | 0.00 | 37 | 1012.0 |
| 20260505201535 | 20 | 216 | 32.2 | 48.3 | 0.00 | 0.00 | 0.00 | 36 | 1012.2 |
| 20260505194556 | 19 | 226 | 35.4 | 46.7 | 0.00 | 0.00 | 0.00 | 38 | 1012.4 |
| 20260505193014 | 19 | 223 | 32.2 | 45.1 | 0.00 | 0.00 | 0.00 | 38 | 1012.4 |
| 20260505191615 | 19 | 214 | 27.4 | 43.5 | 0.00 | 0.00 | 0.00 | 39 | 1012.3 |
| 20260505184519 | 18 | 219 | 27.4 | 48.3 | 0.00 | 0.00 | 0.00 | 38 | 1012.9 |
| 20260505183131 | 18 | 228 | 24.1 | 37.0 | 0.00 | 0.00 | 0.00 | 38 | 1013.0 |
| 20260505181548 | 17 | 225 | 20.9 | 27.4 | 0.00 | 0.00 | 0.00 | 40 | 1013.1 |
| 20260505174544 | 17 | 223 | 20.9 | 30.6 | 0.00 | 0.00 | 0.00 | 38 | 1013.5 |
| 20260505173007 | 16 | 225 | 19.3 | 29.0 | 0.00 | 0.00 | 0.00 | 39 | 1013.8 |
| 20260505171559 | 16 | 230 | 19.3 | 25.7 | 0.00 | 0.00 | 0.00 | 40 | 1013.8 |
| 20260505164523 | 16 | 214 | 19.3 | 27.4 | 0.00 | 0.00 | 0.00 | 41 | 1013.5 |
| 20260505163119 | 16 | 217 | 20.9 | 27.4 | 0.00 | 0.00 | 0.00 | 41 | 1013.5 |
| 20260505161539 | 16 | 221 | 14.5 | 22.5 | 0.00 | 0.00 | 0.00 | 41 | 1013.5 |
| 20260505153045 | 15 | 197 | 16.1 | 22.5 | 0.00 | 0.00 | 0.00 | 47 | 1013.7 |
| 20260505151539 | 15 | 205 | 16.1 | 27.4 | 0.00 | 0.00 | 0.00 | 49 | 1013.9 |
| 20260505124524 | 14 | 228 | 8.0 | 12.9 | 0.00 | 0.00 | 0.00 | 48 | 1013.5 |
| 20260505123023 | 14 | 232 | 8.0 | 12.9 | 0.00 | 0.00 | 0.00 | 48 | 1013.3 |
| 20260505121522 | 14 | 228 | 6.4 | 11.3 | 0.00 | 0.00 | 0.00 | 47 | 1013.3 |
| 20260505120035 | 15 | 228 | 11.3 | 16.1 | 0.00 | 0.00 | 0.00 | 46 | 1013.3 |
| 20260505114521 | 15 | 223 | 11.3 | 16.1 | 0.00 | 0.00 | 0.00 | 45 | 1013.3 |
| 20260505113019 | 15 | 205 | 11.3 | 17.7 | 0.00 | 0.00 | 0.00 | 46 | 1013.4 |
| 20260505111529 | 15 | 228 | 14.5 | 25.7 | 0.00 | 0.00 | 0.00 | 44 | 1013.5 |
| 20260505101512 | 15 | 232 | 11.3 | 16.1 | 0.00 | 0.00 | 0.00 | 47 | 1013.3 |
| 20260505100010 | 14 | 232 | 9.7 | 14.5 | 0.00 | 0.00 | 0.00 | 50 | 1013.3 |
| 20260505094508 | 14 | 229 | 4.8 | 9.7 | 0.00 | 0.00 | 0.00 | 54 | 1013.0 |
| 20260505093004 | 15 | 232 | 8.0 | 11.3 | 0.00 | 0.00 | 0.00 | 53 | 1013.4 |
| 20260505091501 | 15 | 230 | 11.3 | 14.5 | 0.00 | 0.00 | 0.00 | 46 | 1013.5 |
| 20260505090123 | 15 | 245 | 6.4 | 12.9 | 0.00 | 0.00 | 0.00 | 46 | 1013.5 |
| 20260505084615 | 16 | 253 | 9.7 | 14.5 | 0.00 | 0.00 | 0.00 | 45 | 1013.4 |
| 20260505083111 | 15 | 255 | 9.7 | 16.1 | 0.00 | 0.00 | 0.00 | 46 | 1013.7 |
| 20260505081603 | 15 | 264 | 8.0 | 14.5 | 0.00 | 0.00 | 0.00 | 53 | 1013.8 |
| 20260505074549 | 16 | 277 | 12.9 | 19.3 | 0.00 | 0.00 | 0.00 | 44 | 1014.0 |
| 20260505073054 | 16 | 254 | 14.5 | 22.5 | 0.00 | 0.00 | 0.00 | 41 | 1013.8 |
| 20260505071549 | 16 | 230 | 11.3 | 20.9 | 0.00 | 0.00 | 0.00 | 41 | 1013.8 |
| 20260505070050 | 16 | 241 | 17.7 | 25.7 | 0.00 | 0.00 | 0.00 | 43 | 1013.7 |
| 20260505064539 | 17 | 240 | 11.3 | 17.7 | 0.00 | 0.00 | 0.00 | 39 | 1013.5 |
| 20260505063041 | 17 | 233 | 9.7 | 16.1 | 0.00 | 0.00 | 0.00 | 36 | 1013.4 |
| 20260505061534 | 17 | 226 | 12.9 | 20.9 | 0.00 | 0.00 | 0.00 | 34 | 1013.2 |